Location: Columbia
(38.9520°N, 92.3340°W)
Time: 13:26:48
(UTC-05:00)

Cosmos 2219 Rocket - Visible Passes

Search period start: 28 July 2014 00:00
Search period end: 07 August 2014 00:00
Orbit: 830 x 845 km, 71.0° (Epoch: 28 July)

Date Brightness Start Highest point End Pass type
(mag) Time Alt. Az. Time Alt. Az. Time Alt. Az.
28 Jul 3.2 00:17:36 10° NW 00:21:56 37° W 00:21:56 37° W visible
28 Jul 3.5 22:17:46 10° N 22:22:26 26° ENE 22:24:18 22° E visible
29 Jul 3.0 00:01:17 10° NW 00:06:01 41° W 00:06:01 41° W visible
29 Jul 3.6 22:01:36 10° N 22:06:09 25° NE 22:08:25 19° E visible
29 Jul 2.8 23:44:59 10° NW 23:50:08 46° W 23:50:08 46° W visible
30 Jul 3.6 21:45:27 10° N 21:49:51 23° NE 21:52:34 17° E visible
30 Jul 2.6 23:28:41 10° NNW 23:34:04 50° WSW 23:34:17 50° WSW visible
31 Jul 3.7 21:29:18 10° N 21:33:33 22° NE 21:36:45 14° E visible
31 Jul 2.5 23:12:23 10° NNW 23:17:50 54° WSW 23:18:28 51° SW visible
01 Aug 3.8 21:13:10 10° N 21:17:15 20° NE 21:20:58 11° E visible
01 Aug 2.5 22:56:07 10° NNW 23:01:36 59° WSW 23:02:42 49° SSW visible
02 Aug 3.8 20:57:03 10° N 21:00:57 19° NE 21:04:49 10° E visible
02 Aug 2.4 22:39:50 10° NNW 22:45:22 64° WSW 22:46:58 45° S visible
03 Aug 3.9 20:40:57 10° N 20:44:38 18° NE 20:48:19 10° E visible
03 Aug 2.3 22:23:34 10° NNW 22:29:08 69° WSW 22:31:17 38° S visible
04 Aug 2.2 22:07:18 10° NNW 22:12:54 75° WSW 22:15:39 31° S visible
05 Aug 2.2 21:51:02 10° NNW 21:56:39 81° WSW 22:00:04 25° SSE visible
06 Aug 2.2 21:34:47 10° NNW 21:40:25 87° WSW 21:44:33 19° SSE visible
